West Saint Paul, MN (55118)

3:09 PM CDT on May 04, 2015 (GMT -0500)
Highland Park Golf Course | | Change Station
CLOSE
Current Station
Personal Weather Station
Location: Saint Paul, MN
Elevation: 991 ft
Nearby Weather Stations

Elev 991 ft 44.91 °N, 93.17 °W | Updated 2 seconds ago

Partly Cloudy
Partly Cloudy
72.0 °F
Feels Like 73 °F
N
2.0
Wind Variable Wind from NNE
Gusts 3.0 mph

Today
High -- | Low -- °F
--% Chance of Precip.
Yesterday
High -- | Low -- °F
Precip. -- in
5:57 AM 8:21 PM
Full, 100% visible
Pressure 30.18 in
Visibility 10.0 miles
Clouds Clear
Heat Index 73 °F
Dew Point 12 °F
Humidity 10%
Rainfall -999.00 in
Snow Depth Not available.
UV 8 out of 12
Pollen 9.80 out of 12
Air Quality Not available.
Flu Activity Sporadic
METAR KSTP 041953Z VRB04KT 10SM CLR 21/00 A3018

More Conditions Fewer Conditions

Pressure 30.18 in
Visibility 10.0 miles
Clouds Clear
Heat Index 73 °F
Dew Point 12 °F
Humidity 10%
Rainfall -999.00 in
Snow Depth Not available.
UV 8 out of 12
Pollen 9.80 out of 12
Air Quality Not available.
Flu Activity Sporadic
METAR KSTP 041953Z VRB04KT 10SM CLR 21/00 A3018

More Conditions Fewer Conditions

Nepal has a long way to go to dig out and rebuild from a devastating earthquake. We have teamed up with several charities and organizations to make contributing to the relief effort as easy as possible.
How you can help: Portlight Strategies | Red Cross

10-Day Weather Forecast

Almanac

Astronomy

May. 04, 2015 Rise Set
Actual Time
Civil Twilight
Nautical Twilight
Astronomical Twilight
Moon
Length of Visible Light
Length of Day
Tomorrow will be .
, % of the Moon is Illuminated

Today's Extremes

State Highs State Lows

Community

WunderPhotos

Upload Photos

1,818,679 photos uploaded!

WunderBlogs® & News

Nearby

Air Quality

  Air Quality AQ Index Pollutant
Not available.

Snow Depth

Station Depth Elevation

Earthquake Activity

City Distance Mag. Time & Date
Minimum magnitude displayed is 2.5.

Coastal Water Temperatures

Place Temperature

Stations

Nearby Weather Stations

Station Location Temp. Windchill Dew Point Humidity Wind Precip. Elev Updated Type